FM-6

Last updated on Fri Dec 19 2025 00:02:50 GMT+0000 (Coordinated Universal Time)

1 39360U 13058A 25352.60231491 .00000008 00000+0 00000+0 0 9997 2 39360 0.0123 67.2703 0002866 112.0416 8.8268 1.00273107 44260
UTC large
Height (km)
Speed (km/s)
/
Latitude / Longitude
Inclination (degrees)
Orbital Period (minutes)
Azimuth
Elevation
Range (km)
Doppler Factor

Next 0 passes for location: London (51.5072 / 0.1276)

Sorry there are no passes over London.